Location: Neuvy Saint Sepulchre
(46.5953°N, 1.8122°E)
Time: 09:36:56
(UTC+02:00)

ISS - Pass Details

Date: 08 May 2021
Orbit: 417 x 422 km, 51.6° (Epoch: 15 May)

Event Time Altitude Azimuth Distance (km) Brightness Sun altitude
Exits shadow 04:22:20 15° 293° (WNW) 1,235 -1.5 -17.6°
Maximum altitude 04:24:42 34° 354° (N) 713 -2.2 -17.3°
Drops below altitude 10° 04:27:51 10° 62° (ENE) 1,507 0.1 -17.0°
Sets 04:30:04 0° 72° (ENE) 2,373 1.1 -16.7°
